Location: Arcizac
(43.0933°N, 0.0112°E)
Time: 02:44:41
(UTC+00:00)

Cosmos 921 Rocket - Pass Details

Date: 14 December 2019
Orbit: 571 x 632 km, 75.8° (Epoch: 26 January)

Event Time Altitude Azimuth Distance (km) Brightness Sun altitude
Rises 17:17:52 0° 346° (NNW) 2,829 6.4 -9.3°
Reaches altitude 10° 17:20:07 10° 350° (N) 1,933 5.5 -9.7°
Maximum altitude 17:24:22 59° 70° (ENE) 699 3.0 -10.4°
Drops below altitude 10° 17:28:40 10° 150° (SSE) 1,956 5.5 -11.2°
Sets 17:30:57 0° 154° (SSE) 2,866 6.4 -11.6°
